Time,TemperatureF,DewpointF,PressureIn,WindDirection,WindDirectionDegrees,WindSpeedMPH,WindSpeedGustMPH,Humidity,HourlyPrecipIn,Conditions,Clouds,dailyrainin,SoftwareType,DateUTC
2013-02-07 00:00:00,32.3,27.1,30.20,ENE,78,0.0,2.0,81,0.00,,SKC,0.00,VWS V14.01,2013-02-07 05:00:00,
2013-02-07 00:05:00,32.4,27.2,30.20,ENE,78,0.0,0.0,81,0.00,,SKC,0.00,VWS V14.01,2013-02-07 05:05:00,
2013-02-07 00:10:00,32.4,27.2,30.20,ENE,78,0.0,0.0,81,0.00,,SKC,0.00,VWS V14.01,2013-02-07 05:10:00,
2013-02-07 00:15:00,32.3,27.1,30.20,ENE,78,0.0,0.0,81,0.00,,SKC,0.00,VWS V14.01,2013-02-07 05:15:00,
2013-02-07 00:20:00,32.1,26.9,30.20,ENE,78,0.0,0.0,81,0.00,,SKC,0.00,VWS V14.01,2013-02-07 05:20:00,
2013-02-07 00:25:00,32.0,26.8,30.20,ENE,78,1.0,2.0,81,0.00,,SKC,0.00,VWS V14.01,2013-02-07 05:25:00,
2013-02-07 00:30:00,32.0,27.1,30.20,East,79,0.0,0.0,82,0.00,,SKC,0.00,VWS V14.01,2013-02-07 05:30:00,
2013-02-07 00:35:00,32.1,26.9,30.20,ENE,78,0.0,0.0,81,0.00,,SKC,0.00,VWS V14.01,2013-02-07 05:35:00,
2013-02-07 00:40:00,32.0,27.1,30.19,East,79,0.0,0.0,82,0.00,,SKC,0.00,VWS V14.01,2013-02-07 05:40:00,
2013-02-07 00:45:00,32.0,27.1,30.19,ENE,78,0.0,0.0,82,0.00,,SKC,0.00,VWS V14.01,2013-02-07 05:45:00,
2013-02-07 00:50:00,31.9,27.0,30.19,ENE,78,0.0,0.0,82,0.00,,SKC,0.00,VWS V14.01,2013-02-07 05:50:00,
2013-02-07 00:55:00,31.8,26.9,30.19,East,79,0.0,0.0,82,0.00,,SKC,0.00,VWS V14.01,2013-02-07 05:55:00,
2013-02-07 01:00:00,31.7,27.1,30.19,East,79,0.0,0.0,83,0.00,,SKC,0.00,VWS V14.01,2013-02-07 06:00:00,
2013-02-07 01:05:00,31.6,26.8,30.20,ENE,78,0.0,0.0,82,0.00,,SKC,0.00,VWS V14.01,2013-02-07 06:05:00,
2013-02-07 01:10:00,31.7,26.8,30.20,ENE,78,0.0,0.0,82,0.00,,SKC,0.00,VWS V14.01,2013-02-07 06:10:00,
2013-02-07 01:15:00,31.9,27.0,30.20,ENE,78,0.0,0.0,82,0.00,,SKC,0.00,VWS V14.01,2013-02-07 06:15:00,
2013-02-07 01:20:00,31.9,27.0,30.20,ENE,78,0.0,0.0,82,0.00,,SKC,0.00,VWS V14.01,2013-02-07 06:20:00,
2013-02-07 01:25:00,31.9,27.0,30.19,ENE,78,0.0,0.0,82,0.00,,SKC,0.00,VWS V14.01,2013-02-07 06:25:00,
2013-02-07 01:30:00,31.8,26.9,30.20,ENE,78,0.0,0.0,82,0.00,,SKC,0.00,VWS V14.01,2013-02-07 06:30:00,
2013-02-07 01:35:00,31.7,27.1,30.20,ENE,78,2.0,2.0,83,0.00,,SKC,0.00,VWS V14.01,2013-02-07 06:35:00,
2013-02-07 01:40:00,31.8,27.2,30.19,ENE,78,0.0,0.0,83,0.00,,SKC,0.00,VWS V14.01,2013-02-07 06:40:00,
2013-02-07 01:45:00,31.8,27.2,30.19,ENE,78,0.0,0.0,83,0.00,,SKC,0.00,VWS V14.01,2013-02-07 06:45:00,
2013-02-07 01:50:00,31.7,27.1,30.19,ENE,78,0.0,0.0,83,0.00,,SKC,0.00,VWS V14.01,2013-02-07 06:50:00,
2013-02-07 01:55:00,31.6,27.0,30.19,ENE,78,0.0,0.0,83,0.00,,SKC,0.00,VWS V14.01,2013-02-07 06:55:00,
2013-02-07 02:00:00,31.5,26.9,30.19,ENE,78,0.0,0.0,83,0.00,,SKC,0.00,VWS V14.01,2013-02-07 07:00:00,
2013-02-07 02:05:00,31.6,27.0,30.19,ENE,78,0.0,1.0,83,0.00,,SKC,0.00,VWS V14.01,2013-02-07 07:05:00,
2013-02-07 02:10:00,31.6,27.0,30.19,ENE,78,0.0,0.0,83,0.00,,SKC,0.00,VWS V14.01,2013-02-07 07:10:00,
2013-02-07 02:15:00,31.6,27.0,30.19,ENE,78,0.0,0.0,83,0.00,,SKC,0.00,VWS V14.01,2013-02-07 07:15:00,
2013-02-07 02:20:00,31.6,27.0,30.19,ENE,78,0.0,0.0,83,0.00,,SKC,0.00,VWS V14.01,2013-02-07 07:20:00,
2013-02-07 02:25:00,31.6,27.0,30.19,ENE,78,0.0,0.0,83,0.00,,SKC,0.00,VWS V14.01,2013-02-07 07:25:00,
2013-02-07 02:30:00,31.5,26.9,30.19,ENE,78,0.0,0.0,83,0.00,,SKC,0.00,VWS V14.01,2013-02-07 07:30:00,
2013-02-07 02:35:00,31.5,26.9,30.19,ENE,78,0.0,0.0,83,0.00,,SKC,0.00,VWS V14.01,2013-02-07 07:35:00,
2013-02-07 02:40:00,31.4,27.1,30.19,ENE,78,0.0,0.0,84,0.00,,SKC,0.00,VWS V14.01,2013-02-07 07:40:00,
2013-02-07 02:45:00,31.5,27.2,30.19,East,79,0.0,0.0,84,0.00,,SKC,0.00,VWS V14.01,2013-02-07 07:45:00,
2013-02-07 02:50:00,31.5,27.2,30.19,ENE,78,0.0,0.0,84,0.00,,SKC,0.00,VWS V14.01,2013-02-07 07:50:00,
2013-02-07 02:55:00,31.6,27.3,30.19,ENE,78,0.0,1.0,84,0.00,,SKC,0.00,VWS V14.01,2013-02-07 07:55:00,
2013-02-07 03:00:00,31.5,27.2,30.19,ENE,78,0.0,0.0,84,0.00,,SKC,0.00,VWS V14.01,2013-02-07 08:00:00,
2013-02-07 03:05:00,31.5,27.2,30.19,ENE,78,0.0,0.0,84,0.00,,SKC,0.00,VWS V14.01,2013-02-07 08:05:00,
2013-02-07 03:10:00,31.5,27.2,30.19,East,79,0.0,0.0,84,0.00,,SKC,0.00,VWS V14.01,2013-02-07 08:10:00,
2013-02-07 03:15:00,31.6,27.3,30.19,ENE,78,0.0,0.0,84,0.00,,SKC,0.00,VWS V14.01,2013-02-07 08:15:00,
2013-02-07 03:20:00,31.7,27.4,30.19,ENE,78,0.0,0.0,84,0.00,,SKC,0.00,VWS V14.01,2013-02-07 08:20:00,
2013-02-07 03:25:00,31.7,27.4,30.19,ENE,78,0.0,0.0,84,0.00,,SKC,0.00,VWS V14.01,2013-02-07 08:25:00,
2013-02-07 03:30:00,31.7,27.4,30.20,ENE,78,0.0,0.0,84,0.00,,SKC,0.00,VWS V14.01,2013-02-07 08:30:00,
2013-02-07 03:35:00,31.6,27.3,30.20,ENE,78,0.0,0.0,84,0.00,,SKC,0.00,VWS V14.01,2013-02-07 08:35:00,
2013-02-07 03:40:00,31.5,27.2,30.20,East,79,0.0,0.0,84,0.00,,SKC,0.00,VWS V14.01,2013-02-07 08:40:00,
2013-02-07 03:45:00,31.6,27.3,30.20,ENE,78,0.0,0.0,84,0.00,,SKC,0.00,VWS V14.01,2013-02-07 08:45:00,
2013-02-07 03:50:00,31.6,27.3,30.20,ENE,78,0.0,0.0,84,0.00,,SKC,0.00,VWS V14.01,2013-02-07 08:50:00,
2013-02-07 03:55:00,31.6,27.3,30.20,ENE,78,0.0,0.0,84,0.00,,SKC,0.00,VWS V14.01,2013-02-07 08:55:00,
2013-02-07 04:00:00,31.7,27.4,30.21,ENE,78,0.0,0.0,84,0.00,,SKC,0.00,VWS V14.01,2013-02-07 09:00:00,
2013-02-07 04:05:00,31.6,27.3,30.21,ENE,78,0.0,0.0,84,0.00,,SKC,0.00,VWS V14.01,2013-02-07 09:05:00,
2013-02-07 04:10:00,31.6,27.3,30.21,ENE,78,0.0,0.0,84,0.00,,SKC,0.00,VWS V14.01,2013-02-07 09:10:00,
2013-02-07 04:15:00,31.6,27.3,30.21,ENE,78,0.0,0.0,84,0.00,,SKC,0.00,VWS V14.01,2013-02-07 09:15:00,
2013-02-07 04:20:00,31.6,27.3,30.21,ENE,78,0.0,0.0,84,0.00,,SKC,0.00,VWS V14.01,2013-02-07 09:20:00,
2013-02-07 04:25:00,31.6,27.3,30.21,East,79,0.0,0.0,84,0.00,,SKC,0.00,VWS V14.01,2013-02-07 09:25:00,
2013-02-07 04:30:00,31.6,27.6,30.21,ENE,78,0.0,0.0,85,0.00,,SKC,0.00,VWS V14.01,2013-02-07 09:30:00,
2013-02-07 04:35:00,31.6,27.6,30.22,ENE,78,0.0,1.0,85,0.00,,SKC,0.00,VWS V14.01,2013-02-07 09:35:00,
2013-02-07 04:40:00,31.8,27.8,30.22,ENE,78,0.0,0.0,85,0.00,,SKC,0.00,VWS V14.01,2013-02-07 09:40:00,
2013-02-07 04:45:00,31.9,27.9,30.22,ENE,78,0.0,0.0,85,0.00,,SKC,0.00,VWS V14.01,2013-02-07 09:45:00,
2013-02-07 04:50:00,32.0,28.0,30.22,ENE,78,0.0,0.0,85,0.00,,SKC,0.00,VWS V14.01,2013-02-07 09:50:00,
2013-02-07 04:55:00,32.1,28.1,30.22,ENE,78,0.0,0.0,85,0.00,,SKC,0.00,VWS V14.01,2013-02-07 09:55:00,
2013-02-07 05:00:00,32.1,28.1,30.22,ENE,78,0.0,0.0,85,0.00,,SKC,0.00,VWS V14.01,2013-02-07 10:00:00,
2013-02-07 05:05:00,32.3,28.3,30.22,ENE,78,0.0,0.0,85,0.00,,SKC,0.00,VWS V14.01,2013-02-07 10:05:00,
2013-02-07 05:10:00,32.4,28.4,30.22,East,79,0.0,0.0,85,0.00,,SKC,0.00,VWS V14.01,2013-02-07 10:10:00,
2013-02-07 05:15:00,32.5,28.2,30.22,ENE,78,0.0,0.0,84,0.00,,SKC,0.00,VWS V14.01,2013-02-07 10:15:00,
2013-02-07 05:20:00,32.6,28.3,30.22,ENE,78,0.0,0.0,84,0.00,,SKC,0.00,VWS V14.01,2013-02-07 10:20:00,
2013-02-07 05:25:00,32.6,28.3,30.22,ENE,78,0.0,0.0,84,0.00,,SKC,0.00,VWS V14.01,2013-02-07 10:25:00,
2013-02-07 05:30:00,32.7,28.4,30.21,East,79,0.0,0.0,84,0.00,,SKC,0.00,VWS V14.01,2013-02-07 10:30:00,
2013-02-07 05:35:00,32.8,28.5,30.21,ENE,78,0.0,0.0,84,0.00,,SKC,0.00,VWS V14.01,2013-02-07 10:35:00,
2013-02-07 05:40:00,32.8,28.5,30.21,ENE,78,0.0,0.0,84,0.00,,SKC,0.00,VWS V14.01,2013-02-07 10:40:00,
2013-02-07 05:45:00,32.9,28.6,30.20,ENE,78,0.0,0.0,84,0.00,,SKC,0.00,VWS V14.01,2013-02-07 10:45:00,
2013-02-07 05:50:00,32.9,28.6,30.20,ENE,78,0.0,0.0,84,0.00,,SKC,0.00,VWS V14.01,2013-02-07 10:50:00,
2013-02-07 05:55:00,33.0,28.7,30.20,ENE,78,0.0,0.0,84,0.00,,SKC,0.00,VWS V14.01,2013-02-07 10:55:00,
2013-02-07 06:00:00,33.0,28.7,30.20,ENE,78,0.0,0.0,84,0.00,,SKC,0.00,VWS V14.01,2013-02-07 11:00:00,
2013-02-07 06:05:00,33.0,29.0,30.20,ENE,78,0.0,0.0,85,0.00,,SKC,0.00,VWS V14.01,2013-02-07 11:05:00,
2013-02-07 06:10:00,33.1,28.8,30.19,ENE,78,0.0,0.0,84,0.00,,SKC,0.00,VWS V14.01,2013-02-07 11:10:00,
2013-02-07 06:15:00,33.1,28.8,30.19,ENE,78,0.0,0.0,84,0.00,,SKC,0.00,VWS V14.01,2013-02-07 11:15:00,
2013-02-07 06:20:00,33.1,28.8,30.19,ENE,78,0.0,0.0,84,0.00,,SKC,0.00,VWS V14.01,2013-02-07 11:20:00,
2013-02-07 06:25:00,33.1,28.8,30.20,ENE,78,0.0,0.0,84,0.00,,SKC,0.00,VWS V14.01,2013-02-07 11:25:00,
2013-02-07 06:30:00,33.2,28.9,30.20,ENE,78,0.0,0.0,84,0.00,,SKC,0.00,VWS V14.01,2013-02-07 11:30:00,
2013-02-07 06:35:00,33.4,29.1,30.20,ENE,78,0.0,0.0,84,0.00,,SKC,0.00,VWS V14.01,2013-02-07 11:35:00,
2013-02-07 06:40:00,33.5,29.2,30.20,ENE,78,1.0,2.0,84,0.00,,SKC,0.00,VWS V14.01,2013-02-07 11:40:00,
2013-02-07 06:45:00,33.7,29.4,30.20,ENE,78,0.0,0.0,84,0.00,,SKC,0.00,VWS V14.01,2013-02-07 11:45:00,
2013-02-07 06:49:00,33.8,29.5,30.20,ENE,78,0.0,0.0,84,0.00,,SKC,0.00,VWS V14.01,2013-02-07 11:49:00,
2013-02-07 06:54:00,33.8,29.5,30.20,ENE,78,0.0,0.0,84,0.00,,SKC,0.00,VWS V14.01,2013-02-07 11:54:00,
2013-02-07 06:59:00,33.7,29.4,30.20,East,79,0.0,1.0,84,0.00,,SKC,0.00,VWS V14.01,2013-02-07 11:59:00,
2013-02-07 07:04:00,33.6,29.3,30.20,East,79,0.0,0.0,84,0.00,,SKC,0.00,VWS V14.01,2013-02-07 12:04:00,
2013-02-07 07:09:00,33.7,29.7,30.20,ENE,78,0.0,1.0,85,0.00,,SKC,0.00,VWS V14.01,2013-02-07 12:09:00,
2013-02-07 07:14:00,33.8,29.5,30.20,East,79,0.0,0.0,84,0.00,,SKC,0.00,VWS V14.01,2013-02-07 12:14:00,
2013-02-07 07:19:00,33.9,29.6,30.20,ENE,78,0.0,0.0,84,0.00,,SKC,0.00,VWS V14.01,2013-02-07 12:19:00,
2013-02-07 07:24:00,33.9,29.6,30.20,ENE,78,0.0,0.0,84,0.00,,SKC,0.00,VWS V14.01,2013-02-07 12:24:00,
2013-02-07 07:29:00,34.0,29.7,30.20,ENE,78,0.0,0.0,84,0.00,,SKC,0.00,VWS V14.01,2013-02-07 12:29:00,
2013-02-07 07:34:00,34.0,29.7,30.20,East,79,0.0,0.0,84,0.00,,SKC,0.00,VWS V14.01,2013-02-07 12:34:00,
2013-02-07 07:39:00,34.0,29.7,30.20,ENE,78,0.0,0.0,84,0.00,,SKC,0.00,VWS V14.01,2013-02-07 12:39:00,
2013-02-07 07:44:00,34.3,30.0,30.20,ENE,78,0.0,0.0,84,0.00,,SKC,0.00,VWS V14.01,2013-02-07 12:44:00,
2013-02-07 07:49:00,34.4,30.1,30.20,East,79,0.0,0.0,84,0.00,,SKC,0.00,VWS V14.01,2013-02-07 12:49:00,
2013-02-07 07:54:00,34.4,30.1,30.20,ENE,78,0.0,0.0,84,0.00,,SKC,0.00,VWS V14.01,2013-02-07 12:54:00,
2013-02-07 07:59:00,34.4,30.1,30.21,ENE,78,0.0,0.0,84,0.00,,SKC,0.00,VWS V14.01,2013-02-07 12:59:00,
2013-02-07 08:04:00,34.6,30.3,30.20,ENE,78,0.0,0.0,84,0.00,,SKC,0.00,VWS V14.01,2013-02-07 13:04:00,
2013-02-07 08:09:00,34.8,30.5,30.21,ENE,78,0.0,0.0,84,0.00,,SKC,0.00,VWS V14.01,2013-02-07 13:09:00,
2013-02-07 08:14:00,34.9,30.6,30.20,ENE,78,0.0,0.0,84,0.00,,SKC,0.00,VWS V14.01,2013-02-07 13:14:00,
2013-02-07 08:19:00,35.1,30.5,30.20,ENE,78,0.0,0.0,83,0.00,,SKC,0.00,VWS V14.01,2013-02-07 13:19:00,
2013-02-07 08:24:00,35.2,30.6,30.21,ENE,78,0.0,0.0,83,0.00,,SKC,0.00,VWS V14.01,2013-02-07 13:24:00,
2013-02-07 08:29:00,35.2,30.9,30.20,ENE,78,0.0,0.0,84,0.00,,SKC,0.00,VWS V14.01,2013-02-07 13:29:00,
2013-02-07 08:34:00,35.3,30.7,30.20,ENE,78,0.0,0.0,83,0.00,,SKC,0.00,VWS V14.01,2013-02-07 13:34:00,
2013-02-07 08:39:00,35.5,30.9,30.20,East,79,0.0,0.0,83,0.00,,SKC,0.00,VWS V14.01,2013-02-07 13:39:00,
2013-02-07 08:44:00,35.9,31.2,30.20,ENE,78,0.0,0.0,83,0.00,,SKC,0.00,VWS V14.01,2013-02-07 13:44:00,
2013-02-07 08:49:00,36.2,31.5,30.20,ENE,78,0.0,0.0,83,0.00,,SKC,0.00,VWS V14.01,2013-02-07 13:49:00,
2013-02-07 08:54:00,36.4,31.4,30.20,ENE,78,0.0,0.0,82,0.00,,SKC,0.00,VWS V14.01,2013-02-07 13:54:00,
2013-02-07 08:59:00,36.6,31.9,30.20,ENE,78,0.0,0.0,83,0.00,,SKC,0.00,VWS V14.01,2013-02-07 13:59:00,
2013-02-07 09:04:00,36.9,31.9,30.20,ENE,78,0.0,0.0,82,0.00,,SKC,0.00,VWS V14.01,2013-02-07 14:04:00,
2013-02-07 09:09:00,37.1,32.1,30.20,ENE,78,0.0,0.0,82,0.00,,SKC,0.00,VWS V14.01,2013-02-07 14:09:00,
2013-02-07 09:14:00,37.5,32.5,30.20,ENE,78,0.0,0.0,82,0.00,,SKC,0.00,VWS V14.01,2013-02-07 14:14:00,
2013-02-07 09:19:00,37.9,32.6,30.20,ENE,78,0.0,0.0,81,0.00,,SKC,0.00,VWS V14.01,2013-02-07 14:19:00,
2013-02-07 09:24:00,38.2,32.9,30.20,ENE,78,1.0,1.0,81,0.00,,SKC,0.00,VWS V14.01,2013-02-07 14:24:00,
2013-02-07 09:29:00,38.6,33.0,30.20,ENE,78,2.0,3.0,80,0.00,,SKC,0.00,VWS V14.01,2013-02-07 14:29:00,
2013-02-07 09:34:00,38.9,33.0,30.20,ENE,78,0.0,0.0,79,0.00,,SKC,0.00,VWS V14.01,2013-02-07 14:34:00,
2013-02-07 09:39:00,39.1,32.8,30.20,ENE,78,0.0,0.0,78,0.00,,SKC,0.00,VWS V14.01,2013-02-07 14:39:00,
2013-02-07 09:44:00,39.6,33.3,30.19,ENE,78,3.0,3.0,78,0.00,,SKC,0.00,VWS V14.01,2013-02-07 14:44:00,
2013-02-07 09:49:00,39.8,32.9,30.19,ENE,78,0.0,0.0,76,0.00,,SKC,0.00,VWS V14.01,2013-02-07 14:49:00,
2013-02-07 09:54:00,40.0,33.7,30.19,ENE,78,0.0,0.0,78,0.00,,SKC,0.00,VWS V14.01,2013-02-07 14:54:00,
2013-02-07 09:59:00,40.1,33.2,30.19,ENE,78,0.0,0.0,76,0.00,,SKC,0.00,VWS V14.01,2013-02-07 14:59:00,
2013-02-07 10:04:00,40.2,33.2,30.18,ENE,78,0.0,0.0,76,0.00,,SKC,0.00,VWS V14.01,2013-02-07 15:04:00,
2013-02-07 10:09:00,40.5,33.5,30.18,ENE,78,0.0,0.0,76,0.00,,SKC,0.00,VWS V14.01,2013-02-07 15:09:00,
2013-02-07 10:14:00,40.9,32.6,30.18,ENE,78,0.0,0.0,72,0.00,,SKC,0.00,VWS V14.01,2013-02-07 15:14:00,
2013-02-07 10:19:00,41.2,32.5,30.18,ENE,78,0.0,0.0,71,0.00,,SKC,0.00,VWS V14.01,2013-02-07 15:19:00,
2013-02-07 10:24:00,41.6,32.9,30.18,ENE,78,0.0,0.0,71,0.00,,SKC,0.00,VWS V14.01,2013-02-07 15:24:00,
2013-02-07 10:29:00,42.0,32.9,30.17,ENE,78,0.0,0.0,70,0.00,,SKC,0.00,VWS V14.01,2013-02-07 15:29:00,
2013-02-07 10:34:00,42.2,32.4,30.17,ENE,78,1.0,1.0,68,0.00,,SKC,0.00,VWS V14.01,2013-02-07 15:34:00,
2013-02-07 10:39:00,42.4,32.2,30.17,East,79,0.0,0.0,67,0.00,,SKC,0.00,VWS V14.01,2013-02-07 15:39:00,
2013-02-07 10:44:00,42.6,30.1,30.17,ENE,78,0.0,0.0,61,0.00,,SKC,0.00,VWS V14.01,2013-02-07 15:44:00,
2013-02-07 10:49:00,42.9,30.4,30.17,ENE,78,0.0,0.0,61,0.00,,SKC,0.00,VWS V14.01,2013-02-07 15:49:00,
2013-02-07 10:54:00,43.1,29.3,30.17,ENE,78,0.0,0.0,58,0.00,,SKC,0.00,VWS V14.01,2013-02-07 15:54:00,
2013-02-07 10:59:00,43.2,30.7,30.17,ENE,78,0.0,0.0,61,0.00,,SKC,0.00,VWS V14.01,2013-02-07 15:59:00,
2013-02-07 11:04:00,43.3,29.1,30.17,ENE,78,0.0,0.0,57,0.00,,SKC,0.00,VWS V14.01,2013-02-07 16:04:00,
2013-02-07 11:09:00,43.4,27.9,30.17,ENE,78,0.0,0.0,54,0.00,,SKC,0.00,VWS V14.01,2013-02-07 16:09:00,
2013-02-07 11:14:00,43.7,28.2,30.16,ENE,78,0.0,0.0,54,0.00,,SKC,0.00,VWS V14.01,2013-02-07 16:14:00,
2013-02-07 11:19:00,43.8,29.1,30.15,ENE,78,0.0,0.0,56,0.00,,SKC,0.00,VWS V14.01,2013-02-07 16:19:00,
2013-02-07 11:24:00,43.9,28.4,30.15,ENE,78,0.0,1.0,54,0.00,,SKC,0.00,VWS V14.01,2013-02-07 16:24:00,
2013-02-07 11:29:00,44.0,28.4,30.16,ENE,78,0.0,0.0,54,0.00,,SKC,0.00,VWS V14.01,2013-02-07 16:29:00,
2013-02-07 11:34:00,44.1,29.9,30.15,ENE,78,0.0,0.0,57,0.00,,SKC,0.00,VWS V14.01,2013-02-07 16:34:00,
2013-02-07 11:39:00,44.2,30.0,30.15,ENE,78,0.0,0.0,57,0.00,,SKC,0.00,VWS V14.01,2013-02-07 16:39:00,
2013-02-07 11:44:00,44.1,29.4,30.15,ENE,78,0.0,0.0,56,0.00,,SKC,0.00,VWS V14.01,2013-02-07 16:44:00,
2013-02-07 11:49:00,44.1,29.4,30.14,ENE,78,0.0,0.0,56,0.00,,SKC,0.00,VWS V14.01,2013-02-07 16:49:00,
2013-02-07 11:54:00,44.1,29.4,30.14,ENE,78,0.0,0.0,56,0.00,,SKC,0.00,VWS V14.01,2013-02-07 16:54:00,
2013-02-07 11:59:00,44.2,30.0,30.14,ENE,78,0.0,0.0,57,0.00,,SKC,0.00,VWS V14.01,2013-02-07 16:59:00,
2013-02-07 12:04:00,44.3,30.0,30.13,ENE,78,0.0,0.0,57,0.00,,SKC,0.00,VWS V14.01,2013-02-07 17:04:00,
2013-02-07 12:09:00,44.4,31.4,30.13,ENE,78,0.0,0.0,60,0.00,,SKC,0.00,VWS V14.01,2013-02-07 17:09:00,
2013-02-07 12:14:00,44.3,30.5,30.14,ENE,78,0.0,0.0,58,0.00,,SKC,0.00,VWS V14.01,2013-02-07 17:14:00,
2013-02-07 12:19:00,44.4,31.8,30.14,ENE,78,0.0,0.0,61,0.00,,SKC,0.00,VWS V14.01,2013-02-07 17:19:00,
2013-02-07 12:24:00,44.4,30.6,30.13,ENE,78,0.0,0.0,58,0.00,,SKC,0.00,VWS V14.01,2013-02-07 17:24:00,
2013-02-07 12:29:00,44.5,32.7,30.13,ENE,78,0.0,0.0,63,0.00,,SKC,0.00,VWS V14.01,2013-02-07 17:29:00,
2013-02-07 12:34:00,44.4,31.4,30.13,ENE,78,0.0,0.0,60,0.00,,SKC,0.00,VWS V14.01,2013-02-07 17:34:00,
2013-02-07 12:39:00,44.3,32.1,30.13,ENE,78,0.0,0.0,62,0.00,,SKC,0.00,VWS V14.01,2013-02-07 17:39:00,
2013-02-07 12:44:00,44.2,32.4,30.12,ENE,78,0.0,0.0,63,0.00,,SKC,0.00,VWS V14.01,2013-02-07 17:44:00,
2013-02-07 12:49:00,44.1,32.3,30.12,ENE,78,0.0,0.0,63,0.00,,SKC,0.00,VWS V14.01,2013-02-07 17:49:00,
2013-02-07 12:54:00,44.0,32.2,30.11,ENE,78,0.0,1.0,63,0.00,,SKC,0.00,VWS V14.01,2013-02-07 17:54:00,
2013-02-07 12:59:00,44.0,32.2,30.11,ENE,78,0.0,0.0,63,0.00,,SKC,0.00,VWS V14.01,2013-02-07 17:59:00,
2013-02-07 13:04:00,44.0,31.8,30.11,ENE,78,0.0,0.0,62,0.00,,SKC,0.00,VWS V14.01,2013-02-07 18:04:00,
2013-02-07 13:09:00,44.1,33.1,30.11,ENE,78,0.0,0.0,65,0.00,,SKC,0.00,VWS V14.01,2013-02-07 18:09:00,
2013-02-07 13:14:00,44.1,33.1,30.11,ENE,78,0.0,0.0,65,0.00,,SKC,0.00,VWS V14.01,2013-02-07 18:14:00,
2013-02-07 13:19:00,44.1,32.7,30.11,ENE,78,0.0,0.0,64,0.00,,SKC,0.00,VWS V14.01,2013-02-07 18:19:00,
2013-02-07 13:24:00,44.1,33.9,30.11,ENE,78,0.0,0.0,67,0.01,,SKC,0.01,VWS V14.01,2013-02-07 18:24:00,
2013-02-07 13:29:00,44.1,35.7,30.11,ENE,78,0.0,0.0,72,0.01,,SKC,0.01,VWS V14.01,2013-02-07 18:29:00,
2013-02-07 13:34:00,44.0,35.2,30.11,ENE,78,0.0,0.0,71,0.01,,SKC,0.01,VWS V14.01,2013-02-07 18:34:00,
2013-02-07 13:39:00,43.8,35.0,30.11,ENE,78,0.0,0.0,71,0.02,,SKC,0.02,VWS V14.01,2013-02-07 18:39:00,
2013-02-07 13:44:00,43.4,36.0,30.11,ENE,78,0.0,0.0,75,0.02,,SKC,0.02,VWS V14.01,2013-02-07 18:44:00,
2013-02-07 13:49:00,43.0,36.6,30.11,ENE,78,0.0,0.0,78,0.03,,SKC,0.03,VWS V14.01,2013-02-07 18:49:00,
2013-02-07 13:54:00,42.4,37.3,30.11,ENE,78,0.0,0.0,82,0.04,,SKC,0.04,VWS V14.01,2013-02-07 18:54:00,
2013-02-07 13:59:00,42.1,37.3,30.11,ENE,78,0.0,0.0,83,0.04,,SKC,0.04,VWS V14.01,2013-02-07 18:59:00,
2013-02-07 14:04:00,41.8,37.6,30.11,ENE,78,0.0,0.0,85,0.05,,SKC,0.05,VWS V14.01,2013-02-07 19:04:00,
2013-02-07 14:09:00,41.6,37.7,30.10,ENE,78,0.0,0.0,86,0.06,,SKC,0.06,VWS V14.01,2013-02-07 19:09:00,
2013-02-07 14:14:00,41.5,37.9,30.10,ENE,78,0.0,0.0,87,0.06,,SKC,0.06,VWS V14.01,2013-02-07 19:14:00,
2013-02-07 14:19:00,41.4,37.8,30.10,ENE,78,0.0,0.0,87,0.07,,SKC,0.07,VWS V14.01,2013-02-07 19:19:00,
2013-02-07 14:24:00,41.4,37.8,30.10,ENE,78,0.0,0.0,87,0.06,,SKC,0.07,VWS V14.01,2013-02-07 19:24:00,
2013-02-07 14:29:00,41.4,37.8,30.10,ENE,78,0.0,0.0,87,0.06,,SKC,0.07,VWS V14.01,2013-02-07 19:29:00,
2013-02-07 14:34:00,41.5,37.9,30.09,ENE,78,0.0,0.0,87,0.06,,SKC,0.07,VWS V14.01,2013-02-07 19:34:00,
2013-02-07 14:39:00,41.4,37.8,30.09,ENE,78,0.0,0.0,87,0.06,,SKC,0.08,VWS V14.01,2013-02-07 19:39:00,
2013-02-07 14:44:00,41.3,37.7,30.09,ENE,78,0.0,0.0,87,0.06,,SKC,0.08,VWS V14.01,2013-02-07 19:44:00,
2013-02-07 14:49:00,41.3,37.7,30.09,ENE,78,0.0,0.0,87,0.05,,SKC,0.08,VWS V14.01,2013-02-07 19:49:00,
2013-02-07 14:54:00,41.3,38.0,30.09,ENE,78,0.0,0.0,88,0.04,,SKC,0.08,VWS V14.01,2013-02-07 19:54:00,
2013-02-07 14:59:00,41.3,38.0,30.09,ENE,78,2.0,2.0,88,0.04,,SKC,0.09,VWS V14.01,2013-02-07 19:59:00,
2013-02-07 15:03:00,41.2,37.9,30.09,ENE,78,0.0,0.0,88,0.04,,SKC,0.09,VWS V14.01,2013-02-07 20:03:00,
2013-02-07 15:09:00,41.2,37.9,30.09,ENE,78,0.0,0.0,88,0.03,,SKC,0.09,VWS V14.01,2013-02-07 20:09:00,
2013-02-07 15:14:00,41.3,38.3,30.09,ENE,78,0.0,0.0,89,0.03,,SKC,0.09,VWS V14.01,2013-02-07 20:14:00,
2013-02-07 15:19:00,41.3,38.3,30.09,ENE,78,0.0,0.0,89,0.02,,SKC,0.09,VWS V14.01,2013-02-07 20:19:00,
2013-02-07 15:23:00,41.3,38.3,30.09,ENE,78,0.0,0.0,89,0.03,,SKC,0.10,VWS V14.01,2013-02-07 20:23:00,
2013-02-07 15:29:00,41.2,38.2,30.08,ENE,78,0.0,0.0,89,0.03,,SKC,0.10,VWS V14.01,2013-02-07 20:29:00,
2013-02-07 15:33:00,41.2,38.5,30.08,ENE,78,0.0,0.0,90,0.04,,SKC,0.11,VWS V14.01,2013-02-07 20:33:00,
2013-02-07 15:38:00,41.2,38.5,30.08,ENE,78,0.0,0.0,90,0.03,,SKC,0.11,VWS V14.01,2013-02-07 20:38:00,
2013-02-07 15:43:00,41.1,38.4,30.08,ENE,78,1.0,1.0,90,0.03,,SKC,0.11,VWS V14.01,2013-02-07 20:43:00,
2013-02-07 15:48:00,41.1,38.4,30.08,ENE,78,0.0,0.0,90,0.04,,SKC,0.12,VWS V14.01,2013-02-07 20:48:00,
2013-02-07 15:53:00,41.1,38.7,30.08,ENE,78,0.0,0.0,91,0.05,,SKC,0.13,VWS V14.01,2013-02-07 20:53:00,
2013-02-07 15:58:00,41.1,38.7,30.08,ENE,78,0.0,0.0,91,0.06,,SKC,0.14,VWS V14.01,2013-02-07 20:58:00,
2013-02-07 16:03:00,41.1,38.7,30.07,ENE,76,3.0,4.0,91,0.06,,SKC,0.15,VWS V14.01,2013-02-07 21:03:00,
2013-02-07 16:08:00,41.0,38.6,30.07,ENE,76,1.0,1.0,91,0.07,,SKC,0.16,VWS V14.01,2013-02-07 21:08:00,
2013-02-07 16:13:00,40.9,38.5,30.07,ENE,76,1.0,3.0,91,0.08,,SKC,0.17,VWS V14.01,2013-02-07 21:13:00,
2013-02-07 16:18:00,40.9,38.5,30.07,ENE,73,1.0,1.0,91,0.09,,SKC,0.18,VWS V14.01,2013-02-07 21:18:00,
2013-02-07 16:23:00,40.8,38.4,30.07,ENE,72,0.0,0.0,91,0.09,,SKC,0.19,VWS V14.01,2013-02-07 21:23:00,
2013-02-07 16:28:00,40.8,38.4,30.07,ENE,71,0.0,1.0,91,0.10,,SKC,0.20,VWS V14.01,2013-02-07 21:28:00,
2013-02-07 16:33:00,40.7,38.3,30.06,ENE,71,0.0,1.0,91,0.09,,SKC,0.20,VWS V14.01,2013-02-07 21:33:00,
2013-02-07 16:38:00,40.7,38.3,30.06,ENE,71,2.0,2.0,91,0.10,,SKC,0.21,VWS V14.01,2013-02-07 21:38:00,
2013-02-07 16:43:00,40.5,38.1,30.06,NE,40,4.0,4.0,91,0.10,,SKC,0.21,VWS V14.01,2013-02-07 21:43:00,
2013-02-07 16:48:00,40.4,38.0,30.06,NE,35,4.0,4.0,91,0.10,,SKC,0.22,VWS V14.01,2013-02-07 21:48:00,
2013-02-07 16:53:00,40.3,37.9,30.06,NNE,24,1.0,1.0,91,0.09,,SKC,0.22,VWS V14.01,2013-02-07 21:53:00,
2013-02-07 16:58:00,40.3,37.9,30.06,NNE,24,0.0,0.0,91,0.09,,SKC,0.23,VWS V14.01,2013-02-07 21:58:00,
2013-02-07 17:03:00,40.3,37.9,30.05,NNE,21,1.0,3.0,91,0.08,,SKC,0.23,VWS V14.01,2013-02-07 22:03:00,
2013-02-07 17:08:00,40.3,37.9,30.05,NNE,21,2.0,2.0,91,0.08,,SKC,0.24,VWS V14.01,2013-02-07 22:08:00,
2013-02-07 17:13:00,40.3,37.9,30.05,NNE,21,2.0,2.0,91,0.07,,SKC,0.24,VWS V14.01,2013-02-07 22:13:00,
2013-02-07 17:18:00,40.2,38.1,30.05,North,5,0.0,0.0,92,0.06,,SKC,0.24,VWS V14.01,2013-02-07 22:18:00,
2013-02-07 17:23:00,40.2,38.1,30.05,NE,38,1.0,1.0,92,0.05,,SKC,0.24,VWS V14.01,2013-02-07 22:23:00,
2013-02-07 17:28:00,40.3,38.2,30.05,North,5,2.0,2.0,92,0.05,,SKC,0.25,VWS V14.01,2013-02-07 22:28:00,
2013-02-07 17:33:00,40.3,38.2,30.06,NNW,348,3.0,4.0,92,0.05,,SKC,0.25,VWS V14.01,2013-02-07 22:33:00,
2013-02-07 17:38:00,40.3,38.2,30.05,NE,40,1.0,1.0,92,0.05,,SKC,0.26,VWS V14.01,2013-02-07 22:38:00,
2013-02-07 17:43:00,40.3,38.2,30.05,NE,40,1.0,1.0,92,0.05,,SKC,0.26,VWS V14.01,2013-02-07 22:43:00,
2013-02-07 17:48:00,40.3,38.2,30.05,NNE,24,4.0,4.0,92,0.05,,SKC,0.27,VWS V14.01,2013-02-07 22:48:00,
2013-02-07 17:53:00,40.3,38.2,30.05,NNE,24,0.0,0.0,92,0.05,,SKC,0.27,VWS V14.01,2013-02-07 22:53:00,
2013-02-07 17:58:00,40.4,38.3,30.05,NNE,24,0.0,0.0,92,0.05,,SKC,0.28,VWS V14.01,2013-02-07 22:58:00,
2013-02-07 18:03:00,40.4,38.3,30.05,NNE,24,2.0,2.0,92,0.05,,SKC,0.28,VWS V14.01,2013-02-07 23:03:00,
2013-02-07 18:08:00,40.4,38.3,30.05,NNE,24,0.0,0.0,92,0.04,,SKC,0.28,VWS V14.01,2013-02-07 23:08:00,
2013-02-07 18:13:00,40.4,38.3,30.05,NNE,24,1.0,1.0,92,0.04,,SKC,0.28,VWS V14.01,2013-02-07 23:13:00,
2013-02-07 18:18:00,40.4,38.3,30.05,NNE,24,1.0,2.0,92,0.04,,SKC,0.28,VWS V14.01,2013-02-07 23:18:00,
2013-02-07 18:23:00,40.5,38.4,30.05,NNE,24,1.0,4.0,92,0.04,,SKC,0.28,VWS V14.01,2013-02-07 23:23:00,
2013-02-07 18:28:00,40.5,38.4,30.05,NNE,24,1.0,2.0,92,0.03,,SKC,0.28,VWS V14.01,2013-02-07 23:28:00,
2013-02-07 18:33:00,40.5,38.4,30.05,NNE,32,5.0,6.0,92,0.04,,SKC,0.29,VWS V14.01,2013-02-07 23:33:00,
2013-02-07 18:38:00,40.6,38.5,30.05,NE,37,0.0,0.0,92,0.03,,SKC,0.29,VWS V14.01,2013-02-07 23:38:00,
2013-02-07 18:43:00,40.7,38.6,30.05,NE,36,0.0,0.0,92,0.03,,SKC,0.29,VWS V14.01,2013-02-07 23:43:00,
2013-02-07 18:48:00,40.7,38.6,30.05,NE,36,0.0,1.0,92,0.02,,SKC,0.29,VWS V14.01,2013-02-07 23:48:00,
2013-02-07 18:53:00,40.7,38.6,30.05,NE,36,3.0,3.0,92,0.03,,SKC,0.30,VWS V14.01,2013-02-07 23:53:00,
2013-02-07 18:58:00,40.7,38.6,30.05,NE,36,0.0,0.0,92,0.02,,SKC,0.30,VWS V14.01,2013-02-07 23:58:00,
2013-02-07 19:03:00,40.7,38.6,30.06,NE,36,0.0,0.0,92,0.02,,SKC,0.30,VWS V14.01,2013-02-08 00:03:00,
2013-02-07 19:08:00,40.6,38.5,30.05,NE,36,0.0,1.0,92,0.03,,SKC,0.31,VWS V14.01,2013-02-08 00:08:00,
2013-02-07 19:13:00,40.6,38.5,30.05,NE,36,0.0,1.0,92,0.03,,SKC,0.31,VWS V14.01,2013-02-08 00:13:00,
2013-02-07 19:18:00,40.6,38.5,30.05,NE,36,0.0,0.0,92,0.04,,SKC,0.32,VWS V14.01,2013-02-08 00:18:00,
2013-02-07 19:23:00,40.6,38.5,30.05,NE,36,0.0,0.0,92,0.04,,SKC,0.32,VWS V14.01,2013-02-08 00:23:00,
2013-02-07 19:28:00,40.6,38.5,30.05,NE,36,0.0,0.0,92,0.04,,SKC,0.32,VWS V14.01,2013-02-08 00:28:00,
2013-02-07 19:33:00,40.5,38.4,30.06,NE,36,0.0,0.0,92,0.03,,SKC,0.32,VWS V14.01,2013-02-08 00:33:00,
2013-02-07 19:38:00,40.5,38.4,30.05,NE,36,0.0,0.0,92,0.04,,SKC,0.33,VWS V14.01,2013-02-08 00:38:00,
2013-02-07 19:43:00,40.4,38.3,30.05,NE,36,0.0,0.0,92,0.04,,SKC,0.33,VWS V14.01,2013-02-08 00:43:00,
2013-02-07 19:48:00,40.4,38.3,30.05,NE,36,0.0,0.0,92,0.04,,SKC,0.33,VWS V14.01,2013-02-08 00:48:00,
2013-02-07 19:53:00,40.4,38.3,30.05,NE,36,0.0,0.0,92,0.03,,SKC,0.33,VWS V14.01,2013-02-08 00:53:00,
2013-02-07 19:58:00,40.4,38.3,30.05,NE,36,0.0,0.0,92,0.03,,SKC,0.33,VWS V14.01,2013-02-08 00:58:00,
2013-02-07 20:03:00,40.3,38.2,30.05,NE,36,0.0,0.0,92,0.04,,SKC,0.34,VWS V14.01,2013-02-08 01:03:00,
2013-02-07 20:08:00,40.3,38.2,30.05,NE,36,0.0,0.0,92,0.04,,SKC,0.34,VWS V14.01,2013-02-08 01:08:00,
2013-02-07 20:13:00,40.3,38.4,30.04,NE,36,0.0,0.0,93,0.03,,SKC,0.34,VWS V14.01,2013-02-08 01:13:00,
2013-02-07 20:18:00,40.3,38.2,30.04,NE,36,0.0,0.0,92,0.02,,SKC,0.34,VWS V14.01,2013-02-08 01:18:00,
2013-02-07 20:23:00,40.2,38.1,30.04,NE,36,0.0,1.0,92,0.02,,SKC,0.34,VWS V14.01,2013-02-08 01:23:00,
2013-02-07 20:28:00,40.2,38.1,30.04,NE,36,0.0,0.0,92,0.02,,SKC,0.34,VWS V14.01,2013-02-08 01:28:00,
2013-02-07 20:33:00,40.2,38.1,30.04,NE,36,0.0,0.0,92,0.02,,SKC,0.34,VWS V14.01,2013-02-08 01:33:00,
2013-02-07 20:38:00,40.2,38.3,30.04,NE,36,0.0,0.0,93,0.01,,SKC,0.34,VWS V14.01,2013-02-08 01:38:00,
2013-02-07 20:43:00,40.2,38.3,30.04,NE,36,0.0,0.0,93,0.01,,SKC,0.34,VWS V14.01,2013-02-08 01:43:00,
2013-02-07 20:48:00,40.1,38.2,30.04,NE,36,0.0,0.0,93,0.01,,SKC,0.34,VWS V14.01,2013-02-08 01:48:00,
2013-02-07 20:53:00,40.1,38.2,30.03,NE,36,0.0,0.0,93,0.01,,SKC,0.34,VWS V14.01,2013-02-08 01:53:00,
2013-02-07 20:58:00,40.1,38.2,30.04,NE,36,0.0,0.0,93,0.01,,SKC,0.34,VWS V14.01,2013-02-08 01:58:00,
2013-02-07 21:03:00,40.1,38.2,30.04,NE,36,0.0,0.0,93,0.00,,SKC,0.34,VWS V14.01,2013-02-08 02:03:00,
2013-02-07 21:08:00,40.1,38.2,30.04,NE,36,0.0,0.0,93,0.00,,SKC,0.34,VWS V14.01,2013-02-08 02:08:00,
2013-02-07 21:13:00,40.1,38.2,30.03,NE,36,0.0,0.0,93,0.00,,SKC,0.34,VWS V14.01,2013-02-08 02:13:00,
2013-02-07 21:18:00,40.1,38.2,30.03,NE,36,0.0,0.0,93,0.00,,SKC,0.34,VWS V14.01,2013-02-08 02:18:00,
2013-02-07 21:23:00,40.1,38.2,30.03,NE,36,0.0,0.0,93,0.00,,SKC,0.34,VWS V14.01,2013-02-08 02:23:00,
2013-02-07 21:28:00,40.1,38.2,30.03,NE,36,0.0,0.0,93,0.00,,SKC,0.34,VWS V14.01,2013-02-08 02:28:00,
2013-02-07 21:33:00,40.1,38.2,30.03,NE,36,0.0,0.0,93,0.00,,SKC,0.34,VWS V14.01,2013-02-08 02:33:00,
2013-02-07 21:38:00,40.1,38.2,30.03,NE,36,0.0,0.0,93,0.00,,SKC,0.34,VWS V14.01,2013-02-08 02:38:00,
2013-02-07 21:43:00,40.1,38.2,30.03,NE,36,0.0,0.0,93,0.00,,SKC,0.34,VWS V14.01,2013-02-08 02:43:00,
2013-02-07 21:48:00,40.1,38.2,30.02,NE,36,0.0,0.0,93,0.00,,SKC,0.34,VWS V14.01,2013-02-08 02:48:00,
2013-02-07 21:53:00,40.1,38.2,30.02,NE,36,0.0,0.0,93,0.00,,SKC,0.34,VWS V14.01,2013-02-08 02:53:00,
2013-02-07 21:58:00,40.1,38.2,30.02,NE,36,0.0,0.0,93,0.00,,SKC,0.34,VWS V14.01,2013-02-08 02:58:00,
2013-02-07 22:03:00,40.1,38.2,30.02,NE,36,0.0,0.0,93,0.00,,SKC,0.34,VWS V14.01,2013-02-08 03:03:00,
2013-02-07 22:08:00,40.1,38.2,30.02,NE,36,0.0,0.0,93,0.00,,SKC,0.34,VWS V14.01,2013-02-08 03:08:00,